TimeCST,TemperatureF,Dew PointF,Humidity,Sea Level PressureIn,VisibilityMPH,Wind Direction,Wind SpeedMPH,Gust SpeedMPH,PrecipitationIn,Events,Conditions,WindDirDegrees,DateUTC
12:15 AM,50.0,50.0,100,29.89,4.0,Calm,Calm,-,N/A,,Overcast,0,2013-02-10 06:15:00
12:35 AM,50.0,50.0,100,29.89,5.0,Calm,Calm,-,N/A,,Overcast,0,2013-02-10 06:35:00
12:55 AM,48.2,48.2,100,29.88,4.0,NE,5.8,-,N/A,,Overcast,50,2013-02-10 06:55:00
1:15 AM,48.2,48.2,100,29.86,4.0,East,4.6,-,N/A,,Light Drizzle,80,2013-02-10 07:15:00
1:35 AM,50.0,50.0,100,29.85,4.0,East,5.8,-,N/A,,Overcast,80,2013-02-10 07:35:00
1:55 AM,53.6,53.6,100,29.84,5.0,SSE,9.2,21.9,N/A,Rain,Light Rain,150,2013-02-10 07:55:00
2:15 AM,55.4,55.4,100,29.80,3.0,SE,12.7,21.9,N/A,Rain,Light Rain,140,2013-02-10 08:15:00
2:35 AM,55.4,55.4,100,29.79,3.0,SSE,10.4,17.3,N/A,,Light Drizzle,150,2013-02-10 08:35:00
2:55 AM,57.2,57.2,100,29.79,4.0,SSE,11.5,21.9,N/A,,Overcast,150,2013-02-10 08:55:00
3:15 AM,57.2,57.2,100,29.77,4.0,SSE,11.5,20.7,N/A,Rain,Light Rain,150,2013-02-10 09:15:00
3:35 AM,57.2,57.2,100,29.74,2.5,SSE,16.1,23.0,N/A,Rain,Light Rain,150,2013-02-10 09:35:00
3:55 AM,59.0,59.0,100,29.74,4.0,SSE,9.2,19.6,N/A,,Light Drizzle,160,2013-02-10 09:55:00
4:15 AM,59.0,59.0,100,29.71,4.0,SSE,16.1,24.2,N/A,,Light Drizzle,160,2013-02-10 10:15:00
4:35 AM,59.0,59.0,100,29.73,5.0,South,16.1,24.2,N/A,Thunderstorm,Unknown,170,2013-02-10 10:35:00
4:55 AM,60.8,60.8,100,29.73,5.0,SSE,17.3,28.8,N/A,Rain,Rain,160,2013-02-10 10:55:00
5:15 AM,60.8,60.8,100,29.71,5.0,SSE,13.8,23.0,N/A,Rain-Thunderstorm,Heavy Thunderstorms and Rain,150,2013-02-10 11:15:00
5:35 AM,60.8,60.8,100,29.73,5.0,SSE,12.7,19.6,N/A,Rain-Thunderstorm,Rain,160,2013-02-10 11:35:00
5:55 AM,60.8,60.8,100,29.73,5.0,South,13.8,23.0,N/A,Rain-Thunderstorm,Thunderstorms and Rain,170,2013-02-10 11:55:00
6:15 AM,59.0,59.0,100,29.77,4.0,SSW,8.1,21.9,N/A,Rain-Thunderstorm,Heavy Thunderstorms and Rain,200,2013-02-10 12:15:00
6:35 AM,60.8,59.0,94,29.70,7.0,SSE,11.5,21.9,N/A,Rain,Rain,150,2013-02-10 12:35:00
6:55 AM,60.8,59.0,94,29.69,10.0,South,6.9,19.6,N/A,,Mostly Cloudy,180,2013-02-10 12:55:00
7:15 AM,60.8,53.6,77,29.72,10.0,SW,9.2,16.1,N/A,,Scattered Clouds,220,2013-02-10 13:15:00
7:55 AM,60.8,59.0,94,29.75,3.0,SSW,8.1,17.3,N/A,,Overcast,210,2013-02-10 13:55:00
8:15 AM,59.0,59.0,100,29.76,5.0,SW,8.1,-,N/A,,Overcast,220,2013-02-10 14:15:00
8:35 AM,60.8,60.8,100,29.77,10.0,SW,8.1,-,N/A,,Overcast,230,2013-02-10 14:35:00
8:55 AM,60.8,59.0,94,29.78,10.0,WSW,5.8,-,0.02,,Overcast,240,2013-02-10 14:55:00
9:15 AM,60.8,57.2,88,29.79,10.0,SSW,6.9,-,N/A,,Mostly Cloudy,210,2013-02-10 15:15:00
9:35 AM,60.8,55.4,82,29.78,10.0,SSW,4.6,-,N/A,,Overcast,210,2013-02-10 15:35:00
9:55 AM,60.8,55.4,82,29.78,10.0,SW,4.6,-,N/A,,Overcast,230,2013-02-10 15:55:00
10:15 AM,62.6,55.4,77,29.79,10.0,SW,6.9,-,N/A,,Mostly Cloudy,220,2013-02-10 16:15:00
10:35 AM,62.6,50.0,63,29.79,10.0,SSW,3.5,-,N/A,,Scattered Clouds,210,2013-02-10 16:35:00
10:55 AM,62.6,48.2,59,29.78,10.0,WSW,8.1,-,N/A,,Clear,240,2013-02-10 16:55:00
11:15 AM,64.4,50.0,59,29.78,10.0,West,12.7,-,N/A,,Clear,260,2013-02-10 17:15:00
11:35 AM,64.4,48.2,56,29.78,10.0,WSW,11.5,-,N/A,,Scattered Clouds,250,2013-02-10 17:35:00
11:55 AM,66.2,44.6,46,29.77,10.0,West,18.4,23.0,N/A,,Scattered Clouds,260,2013-02-10 17:55:00
12:15 PM,64.4,41.0,42,29.77,10.0,West,13.8,23.0,N/A,,Clear,260,2013-02-10 18:15:00
12:35 PM,64.4,41.0,42,29.76,10.0,West,16.1,19.6,N/A,,Clear,270,2013-02-10 18:35:00
12:55 PM,64.4,30.2,28,29.77,10.0,WSW,13.8,-,N/A,,Clear,250,2013-02-10 18:55:00
1:15 PM,64.4,30.2,28,29.76,10.0,West,11.5,20.7,N/A,,Clear,260,2013-02-10 19:15:00
1:35 PM,68.0,30.2,24,29.76,10.0,SW,9.2,-,N/A,,Clear,220,2013-02-10 19:35:00
1:55 PM,68.0,23.0,18,29.76,10.0,WSW,10.4,18.4,N/A,,Clear,250,2013-02-10 19:55:00
2:15 PM,68.0,23.0,18,29.76,10.0,West,16.1,23.0,N/A,,Clear,260,2013-02-10 20:15:00
2:35 PM,68.0,23.0,18,29.76,10.0,West,18.4,25.3,N/A,,Clear,260,2013-02-10 20:35:00
2:55 PM,68.0,23.0,18,29.77,10.0,WSW,12.7,18.4,N/A,,Clear,250,2013-02-10 20:55:00
3:15 PM,68.0,21.2,17,29.78,10.0,WSW,11.5,19.6,N/A,,Clear,240,2013-02-10 21:15:00
3:35 PM,68.0,19.4,16,29.79,10.0,WSW,15.0,21.9,N/A,,Clear,240,2013-02-10 21:35:00
3:55 PM,66.2,21.2,18,29.80,10.0,WSW,12.7,19.6,N/A,,Clear,250,2013-02-10 21:55:00
4:15 PM,66.2,23.0,19,29.80,10.0,WSW,12.7,18.4,N/A,,Clear,250,2013-02-10 22:15:00
4:35 PM,66.2,24.8,21,29.81,10.0,WSW,10.4,16.1,N/A,,Clear,250,2013-02-10 22:35:00
4:55 PM,64.4,23.0,21,29.82,10.0,WSW,10.4,-,N/A,,Clear,250,2013-02-10 22:55:00
5:15 PM,64.4,23.0,21,29.83,10.0,WSW,5.8,-,N/A,,Clear,240,2013-02-10 23:15:00
5:35 PM,62.6,23.0,22,29.84,10.0,WSW,6.9,-,N/A,,Clear,240,2013-02-10 23:35:00
5:55 PM,60.8,26.6,27,29.85,10.0,SW,4.6,-,N/A,,Clear,230,2013-02-10 23:55:00
6:15 PM,59.0,26.6,29,29.86,10.0,SW,3.5,-,N/A,,Clear,230,2013-02-11 00:15:00
6:35 PM,59.0,26.6,29,29.87,10.0,SW,5.8,-,N/A,,Clear,230,2013-02-11 00:35:00
6:55 PM,57.2,26.6,31,29.88,10.0,SW,5.8,-,N/A,,Clear,220,2013-02-11 00:55:00
7:15 PM,57.2,26.6,31,29.89,10.0,WSW,8.1,-,N/A,,Clear,240,2013-02-11 01:15:00
7:35 PM,57.2,26.6,31,29.90,10.0,WSW,5.8,-,N/A,,Clear,240,2013-02-11 01:35:00
7:55 PM,51.8,28.4,41,29.91,10.0,WSW,3.5,-,N/A,,Clear,240,2013-02-11 01:55:00
8:15 PM,51.8,32.0,47,29.93,10.0,Calm,Calm,-,N/A,,Clear,0,2013-02-11 02:15:00
8:35 PM,50.0,30.2,47,29.94,10.0,Calm,Calm,-,N/A,,Clear,0,2013-02-11 02:35:00
8:55 PM,51.8,30.2,44,29.95,10.0,West,3.5,-,N/A,,Clear,270,2013-02-11 02:55:00
9:15 PM,46.4,32.0,57,29.96,10.0,Calm,Calm,-,N/A,,Clear,0,2013-02-11 03:15:00
9:35 PM,46.4,32.0,57,29.98,10.0,West,3.5,-,N/A,,Clear,280,2013-02-11 03:35:00
9:55 PM,48.2,32.0,54,29.99,10.0,West,4.6,-,N/A,,Clear,270,2013-02-11 03:55:00
10:15 PM,48.2,30.2,50,30.00,10.0,West,4.6,-,N/A,,Clear,260,2013-02-11 04:15:00
10:35 PM,48.2,32.0,54,30.01,10.0,WSW,3.5,-,N/A,,Clear,250,2013-02-11 04:35:00
10:55 PM,46.4,32.0,57,30.01,10.0,Calm,Calm,-,N/A,,Clear,0,2013-02-11 04:55:00
11:15 PM,46.4,32.0,57,30.03,10.0,WNW,8.1,-,N/A,,Clear,290,2013-02-11 05:15:00
11:35 PM,50.0,30.2,47,30.04,10.0,NNW,3.5,-,N/A,,Clear,330,2013-02-11 05:35:00
11:55 PM,51.8,28.4,41,30.04,10.0,NNW,5.8,-,N/A,,Clear,340,2013-02-11 05:55:00